Vlieland, Netherlands

6:55 PM CET on February 24, 2017 (GMT +0100)
Vlieland

Weather History for EHVL - November, 2012

Change the Weather History Date:

Thursday, November 29, 2012

  Actual Average Record
Temperature  
Mean Temperature 42 °F -  
Max Temperature 44 °F 42 °F 53 °F (2015)
Min Temperature 39 °F 37 °F 25 °F (2016)
Degree Days  
Heating Degree Days 24    
Moisture  
Dew Point 37 °F    
Average Humidity 82    
Maximum Humidity 93    
Minimum Humidity 70    
Precipitation  
Precipitation 0.00 in - - ()
Sea Level Pressure  
Sea Level Pressure 29.72 in    
Wind  
Wind Speed 20 mph ()    
Max Wind Speed 29 mph    
Max Gust Speed 36 mph    
Visibility 6.2 miles    
Events Rain    
Averages and records for this station are not official NWS values.
T = Trace of Precipitation, MM = Missing Value Source: Averaged Metar Reports

Daily Weather History Graph

Daily Weather History Graph

Search for Another Location

Airport or City:

Trip Planner

Search our weather history database for the weather conditions in past years. The results will help you decide how hot, cold, wet, or windy it might be!

Date:

Astronomy

Nov. 29, 2012 Rise Set
Actual Time 8:29 AM CET 4:27 PM CET
Civil Twilight 7:48 AM CET 5:08 PM CET
Nautical Twilight 7:04 AM CET 5:52 PM CET
Astronomical Twilight 6:22 AM CET 6:34 PM CET
Moon 5:16 PM CET (11/29) 9:04 AM CET (11/29)
Length of Visible Light 9h 20m
Length of Day
7h 58m
Full, 99% of the Moon is Illuminated
Nov 29
Full
Dec 6
Last Quarter
Dec 13
New
Dec 20
First Quarter
Dec 28
Full

Hourly Weather History & Observations

Time (CET) Temp. Windchill Dew Point Humidity Pressure Visibility Wind Dir Wind Speed Gust Speed Precip Events Conditions
12:07 AM 41.0 °F 30.7 °F 37.4 °F 87% 29.74 in 5.6 mi NNE 25.3 mph - N/A Rain Rain Showers
12:17 AM 42.8 °F 35.1 °F 39.2 °F 87% 29.74 in 6.2 mi NNE 16.1 mph - N/A   Mostly Cloudy
12:25 AM 42.8 °F 34.0 °F 39.2 °F 87% 29.74 in 6.2 mi North 20.7 mph - N/A   Mostly Cloudy
12:32 AM 42.8 °F 33.5 °F 39.2 °F 87% 29.74 in 6.2 mi North 23.0 mph - N/A   Mostly Cloudy
12:41 AM 42.8 °F 33.5 °F 39.2 °F 87% 29.74 in 6.2 mi North 23.0 mph - N/A   Mostly Cloudy
12:42 AM 42.8 °F 33.5 °F 39.2 °F 87% 29.74 in 6.2 mi North 23.0 mph - N/A   Mostly Cloudy
12:55 AM 41.0 °F 30.0 °F 37.4 °F 87% 29.74 in 6.2 mi North 28.8 mph - N/A   Mostly Cloudy
1:25 AM 44.6 °F 35.9 °F 39.2 °F 81% 29.74 in 6.2 mi North 23.0 mph - N/A   Overcast
1:34 AM 44.6 °F 35.9 °F 39.2 °F 81% 29.74 in 6.2 mi North 23.0 mph - N/A   Mostly Cloudy
1:38 AM 44.6 °F 35.9 °F 39.2 °F 81% 29.71 in 6.2 mi North 23.0 mph - N/A   Mostly Cloudy
1:42 AM 44.6 °F 35.9 °F 39.2 °F 81% 29.71 in 6.2 mi North 23.0 mph - N/A   Mostly Cloudy
1:50 AM 44.6 °F 35.7 °F 39.2 °F 81% 29.71 in 6.2 mi North 24.2 mph - N/A   Overcast
1:55 AM 44.6 °F 35.3 °F 39.2 °F 81% 29.71 in 6.2 mi North 26.5 mph - N/A   Overcast
1:59 AM 42.8 °F 32.7 °F 39.2 °F 87% 29.71 in 6.2 mi North 27.6 mph - N/A   Mostly Cloudy
2:09 AM 42.8 °F 32.9 °F 39.2 °F 87% 29.71 in 6.2 mi North 26.5 mph - N/A   Mostly Cloudy
2:25 AM 42.8 °F 32.9 °F 39.2 °F 87% 29.71 in 6.2 mi North 26.5 mph - N/A Rain Light Rain
2:55 AM 44.6 °F 35.5 °F 39.2 °F 81% 29.71 in 6.2 mi North 25.3 mph - N/A   Drizzle
2:59 AM 44.6 °F 35.1 °F 39.2 °F 81% 29.71 in 6.2 mi North 27.6 mph - N/A   Mostly Cloudy
3:11 AM 44.6 °F 34.9 °F 39.2 °F 81% 29.71 in 6.2 mi North 28.8 mph - N/A   Mostly Cloudy
3:15 AM 44.6 °F 35.1 °F 39.2 °F 81% 29.71 in 6.2 mi North 27.6 mph - N/A   Mostly Cloudy
3:19 AM 44.6 °F 35.1 °F 39.2 °F 81% 29.71 in 6.2 mi North 27.6 mph - N/A   Mostly Cloudy
3:25 AM 42.8 °F 32.7 °F 37.4 °F 81% 29.71 in 6.2 mi North 27.6 mph - N/A   Overcast
3:38 AM 42.8 °F 33.1 °F 37.4 °F 81% 29.71 in 6.2 mi NNE 25.3 mph - N/A   Mostly Cloudy
3:44 AM 42.8 °F 33.5 °F 39.2 °F 87% 29.71 in 6.2 mi NNE 23.0 mph - N/A   Mostly Cloudy
3:50 AM 42.8 °F 33.3 °F 39.2 °F 87% 29.71 in 6.2 mi NNE 24.2 mph - N/A   Mostly Cloudy
3:55 AM 42.8 °F 33.5 °F 37.4 °F 81% 29.71 in 6.2 mi NNE 23.0 mph - N/A   Light Drizzle
4:03 AM 42.8 °F 34.5 °F 37.4 °F 81% 29.71 in 6.2 mi NNE 18.4 mph - N/A   Mostly Cloudy
4:04 AM 42.8 °F 34.8 °F 39.2 °F 87% 29.71 in 6.2 mi NNE 17.3 mph - N/A   Mostly Cloudy
4:15 AM 42.8 °F 35.1 °F 39.2 °F 87% 29.71 in 4.3 mi NNE 16.1 mph 33.4 mph N/A   Mostly Cloudy
4:25 AM 41.0 °F 31.1 °F 37.4 °F 87% 29.71 in 6.2 mi NE 23.0 mph - N/A   Mostly Cloudy
4:48 AM 41.0 °F 33.9 °F 37.4 °F 87% 29.71 in 6.2 mi NE 12.7 mph - N/A   Mostly Cloudy
4:55 AM 41.0 °F 32.2 °F 37.4 °F 87% 29.71 in 6.2 mi NE 18.4 mph - N/A Rain Light Rain
4:59 AM 41.0 °F 31.6 °F 37.4 °F 87% 29.71 in 6.2 mi NNE 20.7 mph - N/A   Mostly Cloudy
5:11 AM 41.0 °F 33.1 °F 37.4 °F 87% 29.71 in 6.2 mi NE 15.0 mph - N/A   Drizzle
5:17 AM 41.0 °F 34.3 °F 37.4 °F 87% 29.71 in 6.2 mi NE 11.5 mph - N/A Rain Light Rain
5:21 AM 41.0 °F 34.7 °F 37.4 °F 87% 29.71 in 6.2 mi NE 10.4 mph - N/A   Mostly Cloudy
5:25 AM 41.0 °F 35.2 °F 37.4 °F 87% 29.71 in 6.2 mi NE 9.2 mph - N/A Rain Light Rain
5:34 AM 41.0 °F 34.7 °F 37.4 °F 87% 29.71 in 6.2 mi NE 10.4 mph - N/A Rain Light Rain
5:38 AM 41.0 °F 34.3 °F 39.2 °F 93% 29.71 in 6.2 mi NNE 11.5 mph - N/A   Mostly Cloudy
5:48 AM 42.8 °F 35.1 °F 39.2 °F 87% 29.71 in 6.2 mi NNE 16.1 mph - N/A   Mostly Cloudy
5:55 AM 42.8 °F 34.5 °F 39.2 °F 87% 29.71 in 6.2 mi NNE 18.4 mph - N/A   Mostly Cloudy
6:01 AM 42.8 °F 33.8 °F 39.2 °F 87% 29.71 in 6.2 mi NNE 21.9 mph - N/A   Mostly Cloudy
6:05 AM 42.8 °F 33.5 °F 37.4 °F 81% 29.71 in 6.2 mi NNE 23.0 mph - N/A Rain Light Rain
6:11 AM 41.0 °F 30.9 °F 37.4 °F 87% 29.71 in 6.2 mi NE 24.2 mph - N/A Rain Light Rain
6:25 AM 42.8 °F 35.1 °F 39.2 °F 87% 29.71 in 6.2 mi NNE 16.1 mph - N/A   Mostly Cloudy
6:33 AM 42.8 °F 35.1 °F 39.2 °F 87% 29.71 in 6.2 mi North 16.1 mph - N/A   Mostly Cloudy
6:37 AM 41.0 °F 32.2 °F 37.4 °F 87% 29.71 in 6.2 mi NNE 18.4 mph 29.9 mph N/A   Mostly Cloudy
6:45 AM 41.0 °F 31.6 °F 37.4 °F 87% 29.71 in 6.2 mi NE 20.7 mph - N/A   Mostly Cloudy
6:55 AM 41.0 °F 32.5 °F 37.4 °F 87% 29.71 in 6.2 mi NNE 17.3 mph - N/A   Mostly Cloudy
7:16 AM 42.8 °F 33.5 °F 37.4 °F 81% 29.71 in 6.2 mi North 23.0 mph - N/A   Mostly Cloudy
7:25 AM 42.8 °F 33.8 °F 37.4 °F 81% 29.71 in 6.2 mi NNE 21.9 mph 33.4 mph N/A   Mostly Cloudy
7:38 AM 42.8 °F 33.8 °F 39.2 °F 87% 29.71 in 6.2 mi North 21.9 mph - N/A   Mostly Cloudy
7:55 AM 41.0 °F 31.1 °F 37.4 °F 87% 29.71 in 6.2 mi NE 23.0 mph - N/A   Unknown
8:25 AM 42.8 °F 33.8 °F 37.4 °F 81% 29.71 in 6.2 mi NNE 21.9 mph - N/A   Mostly Cloudy
8:55 AM 42.8 °F 33.5 °F 35.6 °F 76% 29.71 in 6.2 mi NNE 23.0 mph - N/A   Scattered Clouds
9:25 AM 42.8 °F 33.3 °F 35.6 °F 76% 29.71 in 6.2 mi NNE 24.2 mph - N/A   Partly Cloudy
9:55 AM 44.6 °F 36.1 °F 35.6 °F 71% 29.74 in 6.2 mi NE 21.9 mph - N/A   Mostly Cloudy
10:25 AM 44.6 °F 35.9 °F 35.6 °F 71% 29.74 in 6.2 mi NNE 23.0 mph - N/A   Scattered Clouds
10:39 AM 42.8 °F 33.8 °F 35.6 °F 76% 29.74 in 6.2 mi NNE 21.9 mph - N/A   Mostly Cloudy
10:42 AM 41.0 °F 31.4 °F 33.8 °F 76% 29.74 in 6.2 mi NNE 21.9 mph - N/A Rain Rain
10:46 AM 41.0 °F 30.9 °F 35.6 °F 81% 29.74 in 6.2 mi NNE 24.2 mph - N/A Rain Light Rain Showers
10:55 AM 41.0 °F 31.6 °F 35.6 °F 81% 29.74 in 6.2 mi NNE 20.7 mph - N/A Rain Light Rain Showers
11:02 AM 42.8 °F 34.8 °F 37.4 °F 81% 29.74 in 6.2 mi NNE 17.3 mph - N/A   Mostly Cloudy
11:15 AM 42.8 °F 34.5 °F 37.4 °F 81% 29.74 in 6.2 mi North 18.4 mph - N/A   Mostly Cloudy
11:25 AM 42.8 °F 34.0 °F 37.4 °F 81% 29.74 in 6.2 mi NNE 20.7 mph - N/A   Overcast
11:55 AM 44.6 °F 36.9 °F 37.4 °F 76% 29.74 in 6.2 mi North 18.4 mph - N/A   Partly Cloudy
11:56 AM 41.0 °F 31.6 °F 35.6 °F 81% 29.74 in 6.2 mi North 20.7 mph 32.2 mph N/A   Mostly Cloudy
12:09 PM 41.0 °F 31.6 °F 37.4 °F 87% 29.74 in 6.2 mi NNE 20.7 mph - N/A   Mostly Cloudy
12:21 PM 42.8 °F 34.3 °F 37.4 °F 81% 29.74 in 6.2 mi North 19.6 mph - N/A   Mostly Cloudy
12:25 PM 41.0 °F 32.2 °F 37.4 °F 87% 29.74 in 6.2 mi North 18.4 mph - N/A   Mostly Cloudy
12:29 PM 42.8 °F 34.8 °F 37.4 °F 81% 29.74 in 6.2 mi North 17.3 mph - N/A   Scattered Clouds
12:31 PM 42.8 °F 34.8 °F 39.2 °F 87% 29.74 in 6.2 mi North 17.3 mph - N/A   Scattered Clouds
12:39 PM 42.8 °F 34.5 °F 39.2 °F 87% 29.74 in 6.2 mi North 18.4 mph - N/A   Mostly Cloudy
12:48 PM 42.8 °F 34.0 °F 37.4 °F 81% 29.74 in 6.2 mi NNE 20.7 mph - N/A   Mostly Cloudy
12:55 PM 42.8 °F 34.0 °F 37.4 °F 81% 29.74 in 6.2 mi NNE 20.7 mph - N/A   Mostly Cloudy
12:57 PM 41.0 °F 31.6 °F 37.4 °F 87% 29.74 in 6.2 mi NE 20.7 mph - N/A   Scattered Clouds
1:17 PM 44.6 °F 36.9 °F 39.2 °F 81% 29.71 in 6.2 mi NNE 18.4 mph - N/A   Mostly Cloudy
1:21 PM 42.8 °F 34.0 °F 37.4 °F 81% 29.74 in 6.2 mi North 20.7 mph 33.4 mph N/A Rain Light Rain
1:25 PM 42.8 °F 33.8 °F 37.4 °F 81% 29.74 in 6.2 mi North 21.9 mph 33.4 mph N/A   Mostly Cloudy
1:29 PM 42.8 °F 34.3 °F 37.4 °F 81% 29.74 in 6.2 mi North 19.6 mph - N/A   Mostly Cloudy
1:33 PM 42.8 °F 34.5 °F 37.4 °F 81% 29.74 in 6.2 mi North 18.4 mph - N/A   Mostly Cloudy
1:37 PM 41.0 °F 31.1 °F 35.6 °F 81% 29.74 in 6.2 mi NNE 23.0 mph 35.7 mph N/A   Mostly Cloudy
1:44 PM 41.0 °F 31.1 °F 35.6 °F 81% 29.74 in 6.2 mi NNE 23.0 mph 34.5 mph N/A   Light Drizzle
1:55 PM 42.8 °F 34.3 °F 37.4 °F 81% 29.74 in 6.2 mi North 19.6 mph - N/A   Mostly Cloudy
1:59 PM 42.8 °F 33.5 °F 37.4 °F 81% 29.74 in 6.2 mi North 23.0 mph - N/A Rain Light Rain
2:08 PM 41.0 °F 30.0 °F 37.4 °F 87% 29.71 in 6.2 mi NNE 28.8 mph - N/A   Overcast
2:25 PM 42.8 °F 34.3 °F 37.4 °F 81% 29.71 in 6.2 mi North 19.6 mph - N/A   Overcast
2:51 PM 42.8 °F 33.8 °F 35.6 °F 76% 29.71 in 6.2 mi North 21.9 mph 33.4 mph N/A   Mostly Cloudy
2:55 PM 41.0 °F 30.7 °F 35.6 °F 81% 29.71 in 6.2 mi North 25.3 mph - N/A   Drizzle
3:06 PM 41.0 °F 30.2 °F 35.6 °F 81% 29.74 in 6.2 mi North 27.6 mph - N/A Rain Light Rain
3:14 PM 39.2 °F 28.5 °F 35.6 °F 87% 29.74 in 6.2 mi NNE 24.2 mph - N/A Rain Light Rain
3:16 PM 41.0 °F 31.6 °F 35.6 °F 81% 29.74 in 6.2 mi North 20.7 mph - N/A Rain Light Rain
3:25 PM 41.0 °F 32.8 °F 37.4 °F 87% 29.74 in 6.2 mi North 16.1 mph - N/A   Mostly Cloudy
3:55 PM 41.0 °F 30.9 °F 35.6 °F 81% 29.71 in 6.2 mi North 24.2 mph - N/A   Partly Cloudy
4:25 PM 41.0 °F 32.2 °F 37.4 °F 87% 29.74 in 6.2 mi North 18.4 mph - N/A   Scattered Clouds
4:55 PM 41.0 °F 31.4 °F 35.6 °F 81% 29.74 in 6.2 mi North 21.9 mph - N/A   Partly Cloudy
5:25 PM 41.0 °F 31.4 °F 35.6 °F 81% 29.71 in 6.2 mi North 21.9 mph - N/A   Partly Cloudy
5:55 PM 41.0 °F 32.5 °F 35.6 °F 81% 29.71 in 6.2 mi NNE 17.3 mph - N/A   Mostly Cloudy
6:03 PM 41.0 °F 31.9 °F 35.6 °F 81% 29.71 in 6.2 mi NNE 19.6 mph - N/A   Drizzle
6:15 PM 41.0 °F 32.8 °F 37.4 °F 87% 29.71 in 6.2 mi North 16.1 mph - N/A   Mostly Cloudy
6:25 PM 42.8 °F 34.5 °F 37.4 °F 81% 29.71 in 6.2 mi North 18.4 mph - N/A   Partly Cloudy
6:35 PM 42.8 °F 33.8 °F 35.6 °F 76% 29.71 in 4.3 mi North 21.9 mph 33.4 mph N/A   Haze
6:36 PM 41.0 °F 31.1 °F 35.6 °F 81% 29.71 in 6.2 mi North 23.0 mph - N/A Rain Light Rain
6:43 PM 41.0 °F 31.4 °F 35.6 °F 81% 29.71 in 6.2 mi North 21.9 mph 33.4 mph N/A   Overcast
6:47 PM 41.0 °F 31.9 °F 35.6 °F 81% 29.71 in 6.2 mi North 19.6 mph - N/A   Drizzle
6:55 PM 41.0 °F 32.2 °F 35.6 °F 81% 29.71 in 6.2 mi NE 18.4 mph - N/A   Mostly Cloudy
7:08 PM 41.0 °F 33.5 °F 35.6 °F 81% 29.71 in 6.2 mi NE 13.8 mph - N/A   Partly Cloudy
7:25 PM 42.8 °F 33.8 °F 37.4 °F 81% 29.71 in 6.2 mi North 21.9 mph - N/A   Mostly Cloudy
7:55 PM 42.8 °F 33.5 °F 33.8 °F 70% 29.74 in 6.2 mi North 23.0 mph - N/A   Mostly Cloudy
8:25 PM 41.0 °F 31.1 °F 35.6 °F 81% 29.74 in 6.2 mi NNE 23.0 mph - N/A   Overcast
8:55 PM 42.8 °F 33.8 °F 35.6 °F 76% 29.71 in 6.2 mi NNE 21.9 mph - N/A   Overcast
9:25 PM 41.0 °F 32.5 °F 33.8 °F 76% 29.74 in 6.2 mi NNE 17.3 mph - N/A   Partly Cloudy
9:55 PM 42.8 °F 34.0 °F 33.8 °F 70% 29.74 in 6.2 mi North 20.7 mph - N/A   Mostly Cloudy
10:25 PM 41.0 °F 32.2 °F 33.8 °F 76% 29.74 in 6.2 mi NNE 18.4 mph - N/A   Mostly Cloudy
10:29 PM 41.0 °F 31.9 °F 33.8 °F 76% 29.74 in 6.2 mi NNE 19.6 mph - N/A   Mostly Cloudy
10:33 PM 41.0 °F 32.2 °F 33.8 °F 76% 29.74 in 6.2 mi NE 18.4 mph - N/A   Mostly Cloudy
10:55 PM 41.0 °F 33.5 °F 33.8 °F 76% 29.74 in 6.2 mi NE 13.8 mph - N/A   Mostly Cloudy
11:25 PM 39.2 °F 29.6 °F 33.8 °F 81% 29.74 in 6.2 mi NE 19.6 mph - N/A   Mostly Cloudy
11:55 PM 41.0 °F 32.8 °F 33.8 °F 76% 29.74 in 6.2 mi NNE 16.1 mph - N/A   Overcast